NR0A-4 Weather Reports


time (UTC)temp
C
wind
direction
speed
KPH
gust
KPH
rain 1hr
cm
rain 24hr
cm
rain mn
cm
humidity
%
barometer
mb
20260906193504 27 56 4.8 8.0 0.00 0.05 0.05 69 1015.6
20260906193004 27 53 3.2 8.0 0.00 0.05 0.05 71 1015.7
20260906192504 27 37 3.2 8.0 0.00 0.05 0.05 74 1015.7
20260906192004 27 63 3.2 9.7 0.00 0.05 0.05 73 1015.8
20260906191504 26 33 6.4 14.5 0.00 0.05 0.05 73 1015.7
20260906191004 26 74 4.8 9.7 0.00 0.05 0.05 74 1015.7
20260906190504 26 30 1.6 9.7 0.00 0.05 0.05 72 1016.0
20260906190004 26 34 4.8 12.9 0.00 0.05 0.05 76 1016.0
20260906185504 26 3 3.2 4.8 0.00 0.05 0.05 75 1016.2
20260906185004 25 6 3.2 11.3 0.00 0.05 0.05 76 1016.3
20260906184504 25 42 3.2 4.8 0.00 0.05 0.05 77 1016.5
20260906184004 25 18 3.2 4.8 0.00 0.05 0.05 75 1016.7
20260906183504 25 30 1.6 4.8 0.00 0.05 0.05 76 1016.8
20260906183004 25 25 1.6 3.2 0.00 0.05 0.05 77 1016.7
20260906182504 25 49 3.2 9.7 0.00 0.05 0.05 76 1016.7
20260906182005 25 338 4.8 9.7 0.00 0.05 0.05 76 1016.9
20260906181504 25 355 3.2 9.7 0.00 0.05 0.05 78 1016.8
20260906181004 25 292 4.8 12.9 0.00 0.05 0.05 77 1017.2
20260906180504 25 349 3.2 14.5 0.00 0.05 0.05 77 1017.2
20260906180004 25 318 4.8 12.9 0.00 0.05 0.05 76 1016.9
20260906175504 25 321 8.0 16.1 0.00 0.05 0.05 79 1016.7
20260906175004 25 296 4.8 16.1 0.00 0.05 0.05 79 1016.9
20260906174504 25 276 6.4 12.9 0.00 0.05 0.05 78 1017.0
20260906174004 25 328 3.2 8.0 0.00 0.05 0.05 81 1016.8
20260906173504 25 0 3.2 4.8 0.00 0.05 0.05 82 1017.0
20260906173004 25 298 3.2 4.8 0.00 0.05 0.05 82 1017.1
20260906172504 24 357 1.6 4.8 0.00 0.05 0.05 84 1017.0
20260906172004 24 311 1.6 4.8 0.00 0.05 0.05 85 1016.9
20260906171504 24 302 1.6 3.2 0.00 0.05 0.05 85 1017.0
20260906171004 23 327 0.0 3.2 0.00 0.05 0.05 86 1017.0
20260906170504 23 223 1.6 4.8 0.00 0.05 0.05 86 1016.9
20260906170004 23 239 1.6 4.8 0.00 0.05 0.05 86 1017.0
20260906165505 23 202 0.0 3.2 0.00 0.05 0.05 86 1016.7
20260906165004 23 240 0.0 4.8 0.00 0.05 0.05 86 1016.7
20260906164504 23 197 3.2 11.3 0.00 0.05 0.05 86 1016.8
20260906164004 23 206 1.6 4.8 0.00 0.05 0.05 86 1016.4
20260906163505 23 52 1.6 4.8 0.00 0.05 0.05 87 1016.4
20260906163004 23 195 3.2 4.8 0.00 0.05 0.05 86 1016.4
20260906162504 23 296 0.0 3.2 0.00 0.05 0.05 86 1016.1
20260906162004 23 223 0.0 3.2 0.00 0.05 0.05 87 1016.1
20260906161504 23 302 0.0 3.2 0.00 0.05 0.05 88 1015.9
20260906161005 23 215 1.6 3.2 0.00 0.05 0.05 88 1016.0
20260906160504 23 353 0.0 3.2 0.00 0.05 0.05 88 1015.7
20260906160004 23 354 0.0 3.2 0.00 0.05 0.05 88 1015.8
20260906155504 23 233 0.0 0.0 0.00 0.05 0.05 89 1016.2
20260906155005 23 220 0.0 3.2 0.00 0.05 0.05 89 1016.2
20260906154504 23 237 3.2 4.8 0.00 0.05 0.05 90 1016.1
20260906154004 22 263 1.6 4.8 0.00 0.05 0.05 89 1015.4
20260906153504 22 50 1.6 4.8 0.03 0.05 0.05 90 1015.3
20260906153004 22 96 3.2 4.8 0.03 0.05 0.05 90 1015.3
20260906152504 22 317 0.0 3.2 0.03 0.05 0.05 90 1015.4
20260906152005 22 277 1.6 3.2 0.03 0.05 0.05 90 1015.5
20260906151504 22 288 1.6 4.8 0.03 0.05 0.05 90 1015.2
20260906151004 22 29 3.2 4.8 0.03 0.05 0.05 90 1015.4
20260906150505 22 303 0.0 1.6 0.03 0.05 0.05 89 1015.7
20260906150004 22 0 0.0 0.0 0.03 0.05 0.05 89 1016.1
20260906145504 22 0 0.0 0.0 0.03 0.05 0.05 89 1016.4
20260906145004 22 0 0.0 0.0 0.03 0.05 0.05 89 1016.3
20260906144504 22 3 0.0 3.2 0.03 0.05 0.05 89 1016.1
20260906144004 22 247 0.0 1.6 0.03 0.05 0.05 89 1016.3
20260906143504 22 241 0.0 3.2 0.00 0.03 0.03 89 1016.5
20260906143005 22 251 0.0 4.8 0.00 0.03 0.03 89 1016.7
20260906142504 22 204 3.2 4.8 0.00 0.03 0.03 89 1017.0
20260906142004 22 213 1.6 4.8 0.00 0.03 0.03 89 1016.7
20260906141504 23 227 0.0 3.2 0.00 0.03 0.03 88 1016.7
20260906141004 22 246 0.0 0.0 0.03 0.03 0.03 88 1016.6
20260906140504 22 224 0.0 0.0 0.03 0.03 0.03 88 1016.5
20260906140004 22 225 0.0 0.0 0.03 0.03 0.03 88 1016.4
20260906135504 22 304 0.0 0.0 0.03 0.03 0.03 88 1016.2
20260906135004 22 311 0.0 0.0 0.03 0.03 0.03 88 1016.1
20260906134504 23 255 0.0 4.8 0.03 0.03 0.03 88 1016.2
20260906134004 23 229 3.2 4.8 0.03 0.03 0.03 88 1016.2
20260906133505 23 224 1.6 4.8 0.03 0.03 0.03 88 1016.3
20260906133004 23 233 0.0 1.6 0.03 0.03 0.03 88 1016.4
20260906132504 23 213 0.0 3.2 0.03 0.03 0.03 88 1016.4
20260906132004 23 256 1.6 3.2 0.03 0.03 0.03 88 1016.1
20260906131504 23 193 1.6 3.2 0.03 0.03 0.03 87 1016.2
20260906131004 23 129 0.0 1.6 0.00 0.00 0.00 87 1016.0
20260906130504 23 181 1.6 3.2 0.00 0.00 0.00 86 1016.1
20260906130004 23 173 1.6 4.8 0.00 0.00 0.00 86 1015.6
20260906125504 23 188 1.6 4.8 0.00 0.00 0.00 85 1015.5
20260906125004 23 195 4.8 9.7 0.00 0.00 0.00 84 1015.7
20260906124504 23 233 4.8 19.3 0.00 0.00 0.00 84 1015.7
20260906124004 23 227 4.8 9.7 0.00 0.00 0.00 84 1015.7
20260906123504 23 216 6.4 12.9 0.00 0.00 0.00 84 1015.7
20260906123004 23 234 1.6 4.8 0.00 0.00 0.00 84 1015.4
20260906122504 23 226 3.2 8.0 0.00 0.00 0.00 84 1015.2
20260906122004 23 86 0.0 4.8 0.00 0.00 0.00 84 1014.7
20260906121504 23 89 1.6 3.2 0.00 0.00 0.00 84 1014.5
20260906121004 23 121 1.6 4.8 0.00 0.00 0.00 83 1014.5
20260906120504 23 94 1.6 4.8 0.00 0.00 0.00 83 1014.5
20260906120004 23 94 1.6 4.8 0.00 0.00 0.00 83 1014.5
20260906115504 23 107 1.6 4.8 0.00 0.00 0.00 84 1014.4
20260906115004 23 87 1.6 4.8 0.00 0.00 0.00 84 1014.4
20260906114504 23 102 1.6 4.8 0.00 0.00 0.00 84 1014.3
20260906114004 23 104 3.2 4.8 0.00 0.00 0.00 84 1014.4
20260906113504 23 104 3.2 4.8 0.00 0.00 0.00 84 1014.5
20260906113004 23 81 1.6 4.8 0.00 0.00 0.00 84 1014.4
20260906112503 23 102 1.6 4.8 0.00 0.00 0.00 84 1014.2
20260906112004 23 104 3.2 4.8 0.00 0.00 0.00 84 1014.2
20260906111504 23 123 1.6 4.8 0.00 0.00 0.00 84 1014.3
20260906111004 23 93 1.6 4.8 0.00 0.00 0.00 84 1014.3
20260906110504 24 98 3.2 4.8 0.00 0.00 0.00 84 1014.3
20260906110004 24 100 1.6 4.8 0.00 0.00 0.00 84 1014.3
20260906105504 24 102 4.8 11.3 0.00 0.00 0.00 84 1014.1
20260906105004 24 88 1.6 4.8 0.00 0.00 0.00 84 1014.1
20260906104504 24 86 1.6 4.8 0.00 0.00 0.00 84 1014.1
20260906104005 24 91 4.8 9.7 0.00 0.00 0.00 85 1014.1
20260906103504 24 94 0.0 4.8 0.00 0.00 0.00 85 1014.1
20260906103004 24 101 1.6 4.8 0.00 0.00 0.00 85 1014.2
20260906102503 24 102 1.6 3.2 0.00 0.00 0.00 85 1014.2
20260906102004 24 84 1.6 4.8 0.00 0.00 0.00 85 1014.3
20260906101503 24 127 1.6 3.2 0.00 0.00 0.00 85 1014.5
20260906101004 24 124 1.6 4.8 0.00 0.00 0.00 85 1014.5
20260906100504 24 132 1.6 4.8 0.00 0.00 0.00 84 1014.5
20260906100004 24 104 0.0 3.2 0.00 0.00 0.00 84 1014.5
20260906095504 24 106 1.6 3.2 0.00 0.00 0.00 84 1014.3
20260906095004 24 98 3.2 12.9 0.00 0.00 0.00 84 1014.3
20260906094504 24 99 4.8 12.9 0.00 0.00 0.00 84 1014.2
20260906094004 24 108 3.2 4.8 0.00 0.00 0.00 84 1014.2
20260906093504 24 115 3.2 4.8 0.00 0.00 0.00 84 1014.2
20260906093004 24 91 1.6 8.0 0.00 0.00 0.00 84 1014.2
20260906092504 24 86 3.2 8.0 0.00 0.00 0.00 84 1014.2
20260906092004 24 96 1.6 4.8 0.00 0.00 0.00 84 1014.3
20260906091504 25 100 3.2 9.7 0.00 0.00 0.00 84 1014.3
20260906091004 25 87 4.8 11.3 0.00 0.00 0.00 84 1014.2
20260906090504 25 93 3.2 11.3 0.00 0.00 0.00 84 1014.1
20260906090004 25 81 3.2 11.3 0.00 0.00 0.00 84 1014.1
20260906085504 25 78 1.6 4.8 0.00 0.00 0.00 84 1014.2
20260906085004 25 93 3.2 4.8 0.00 0.00 0.00 85 1014.3
20260906084504 25 88 1.6 4.8 0.00 0.00 0.00 84 1014.3
20260906084003 25 95 1.6 4.8 0.00 0.00 0.00 84 1014.5
20260906083504 25 90 1.6 4.8 0.00 0.00 0.00 84 1014.5
20260906083004 25 118 0.0 3.2 0.00 0.00 0.00 84 1014.5
20260906082504 25 0 0.0 3.2 0.00 0.00 0.00 84 1014.5
20260906082004 25 96 0.0 4.8 0.00 0.00 0.00 84 1014.6
20260906081504 25 80 0.0 4.8 0.00 0.00 0.00 84 1014.6
20260906081003 25 80 1.6 3.2 0.00 0.00 0.00 84 1014.6
20260906080504 25 66 1.6 4.8 0.00 0.00 0.00 84 1014.6
20260906080004 25 80 1.6 3.2 0.00 0.00 0.00 84 1014.7
20260906075503 25 87 1.6 3.2 0.00 0.00 0.00 84 1014.6
20260906075004 25 109 1.6 4.8 0.00 0.00 0.00 84 1014.5
20260906074503 25 110 1.6 4.8 0.00 0.00 0.00 84 1014.4
20260906074004 25 63 1.6 4.8 0.00 0.00 0.00 84 1014.2
20260906073503 25 79 1.6 4.8 0.00 0.00 0.00 84 1014.3
20260906073004 25 83 1.6 4.8 0.00 0.00 0.00 84 1014.3
20260906072504 25 82 1.6 4.8 0.00 0.00 0.00 84 1014.2
20260906072004 25 92 0.0 4.8 0.00 0.00 0.00 84 1014.3
20260906071503 25 93 1.6 4.8 0.00 0.00 0.00 84 1014.3
20260906071004 25 104 1.6 4.8 0.00 0.00 0.00 83 1014.3
20260906070503 25 87 1.6 4.8 0.00 0.00 0.00 83 1014.4
20260906070004 25 91 3.2 8.0 0.00 0.00 0.00 83 1014.4
20260906065503 25 93 3.2 4.8 0.00 0.00 0.00 83 1014.3
20260906065004 25 111 3.2 9.7 0.00 0.00 0.00 83 1014.3
20260906064503 25 99 1.6 11.3 0.00 0.00 0.00 83 1014.3
20260906064004 25 57 1.6 4.8 0.00 0.00 0.00 83 1014.3
20260906063504 25 93 1.6 8.0 0.00 0.00 0.00 83 1014.3
20260906063003 25 91 1.6 9.7 0.00 0.00 0.00 83 1014.4
20260906062504 25 87 1.6 14.5 0.00 0.00 0.00 83 1014.4
20260906062004 25 84 3.2 8.0 0.00 0.00 0.00 83 1014.4
20260906061503 25 89 3.2 9.7 0.00 0.00 0.00 83 1014.5
20260906061004 25 102 1.6 11.3 0.00 0.00 0.00 83 1014.5
20260906060503 25 91 3.2 4.8 0.00 0.00 0.00 83 1014.5
20260906060003 25 88 1.6 8.0 0.00 0.00 0.00 83 1014.3
20260906055504 25 87 4.8 14.5 0.00 0.00 0.00 82 1014.3
20260906055004 26 78 4.8 12.9 0.00 0.00 0.00 82 1014.3
20260906054503 26 73 4.8 11.3 0.00 0.00 0.00 82 1014.4
20260906054004 26 85 3.2 8.0 0.00 0.00 0.00 82 1014.5
20260906053504 26 78 1.6 4.8 0.00 0.00 0.00 82 1014.5
20260906053004 26 68 3.2 4.8 0.00 0.00 0.00 82 1014.5
20260906052504 26 71 3.2 9.7 0.00 0.00 0.00 81 1014.5
20260906052004 26 74 3.2 11.3 0.00 0.00 0.00 81 1014.4
20260906051504 26 84 4.8 14.5 0.00 0.00 0.00 81 1014.4
20260906051003 26 79 3.2 9.7 0.00 0.00 0.00 81 1014.5
20260906050505 26 83 1.6 9.7 0.00 0.00 0.00 81 1014.4
20260906050004 26 81 3.2 11.3 0.00 0.00 0.00 81 1014.5
20260906045004 26 84 6.4 12.9 0.00 0.00 0.00 80 1014.6
20260906044504 26 90 3.2 9.7 0.00 0.00 0.00 80 1014.6
20260906044004 26 74 4.8 16.1 0.00 0.00 0.00 79 1014.5
20260906043504 26 75 6.4 19.3 0.00 0.00 0.00 79 1014.5
20260906043004 26 93 3.2 16.1 0.00 0.00 0.00 79 1014.5
20260906042504 26 86 1.6 9.7 0.00 0.00 0.00 78 1014.5
20260906042004 27 78 6.4 16.1 0.00 0.00 0.00 78 1014.5
20260906041504 27 86 4.8 12.9 0.00 0.00 0.00 77 1014.6
20260906041004 27 68 3.2 19.3 0.00 0.00 0.00 77 1014.6
20260906040504 27 75 8.0 16.1 0.00 0.00 0.00 77 1014.7
20260906040004 27 74 4.8 12.9 0.00 0.00 0.00 77 1014.7
20260906035504 27 48 4.8 11.3 0.00 0.00 0.00 76 1014.7
20260906035004 27 51 3.2 11.3 0.00 0.00 0.00 76 1014.6
20260906034505 27 63 4.8 16.1 0.00 0.00 0.00 76 1014.6
20260906034004 27 64 6.4 14.5 0.00 0.00 0.00 76 1014.5
20260906033504 27 74 8.0 16.1 0.00 0.00 0.00 75 1014.6
20260906033004 27 76 6.4 14.5 0.00 0.00 0.00 75 1014.6
20260906032504 27 71 4.8 16.1 0.00 0.00 0.00 75 1014.6
20260906032005 27 72 3.2 11.3 0.00 0.00 0.00 74 1014.7
20260906031504 27 75 4.8 11.3 0.00 0.00 0.00 74 1014.7
20260906031005 27 65 4.8 12.9 0.00 0.00 0.00 74 1014.7
20260906030504 27 67 4.8 14.5 0.00 0.00 0.00 73 1014.6
20260906030004 27 68 3.2 14.5 0.00 0.00 0.00 73 1014.7
20260906025504 27 65 4.8 12.9 0.00 0.00 0.00 73 1014.6
20260906025005 27 78 4.8 12.9 0.00 0.00 0.00 73 1014.5
20260906024504 27 59 3.2 9.7 0.00 0.00 0.00 74 1014.5
20260906024004 27 62 3.2 11.3 0.00 0.00 0.00 74 1014.6
20260906023504 27 49 1.6 4.8 0.00 0.00 0.00 73 1014.5
20260906023004 27 50 1.6 4.8 0.00 0.00 0.00 73 1014.4
20260906022504 27 60 1.6 8.0 0.00 0.00 0.00 74 1014.3
20260906022004 27 52 1.6 4.8 0.00 0.00 0.00 74 1014.1
20260906021504 27 53 1.6 8.0 0.00 0.00 0.00 74 1013.9
20260906021004 27 59 1.6 4.8 0.00 0.00 0.00 74 1013.6
20260906020504 28 57 3.2 9.7 0.00 0.00 0.00 74 1013.6
20260906020004 28 65 3.2 9.7 0.00 0.00 0.00 74 1013.5
20260906015503 28 64 3.2 12.9 0.00 0.00 0.00 74 1013.3
20260906015004 28 73 4.8 11.3 0.00 0.00 0.00 74 1013.3
20260906014504 28 51 3.2 14.5 0.00 0.00 0.00 73 1013.3
20260906014005 28 71 4.8 14.5 0.00 0.00 0.00 73 1013.2
20260906013504 28 57 4.8 12.9 0.00 0.00 0.00 73 1013.2
20260906013004 28 60 1.6 4.8 0.00 0.00 0.00 73 1013.1
20260906012504 28 69 3.2 8.0 0.00 0.00 0.00 72 1013.1
20260906012004 29 44 1.6 4.8 0.00 0.00 0.00 72 1013.1
20260906011504 29 65 1.6 8.0 0.00 0.00 0.00 71 1013.0
20260906011005 29 64 3.2 11.3 0.00 0.00 0.00 71 1013.0
20260906010504 29 89 3.2 12.9 0.00 0.00 0.00 70 1013.0
20260906010004 30 76 3.2 9.7 0.00 0.00 0.00 70 1012.9
20260906005504 30 85 4.8 12.9 0.00 0.00 0.00 69 1012.9
20260906005004 30 77 1.6 4.8 0.00 0.00 0.00 69 1013.0
20260906004504 30 99 1.6 4.8 0.00 0.00 0.00 68 1013.0
20260906004004 30 63 1.6 4.8 0.00 0.00 0.00 67 1013.0
20260906003504 30 82 1.6 4.8 0.00 0.00 0.00 67 1013.1
20260906003004 30 45 0.0 0.0 0.00 0.00 0.00 66 1013.0
20260906002504 30 108 0.0 4.8 0.00 0.00 0.00 65 1012.9
20260906002004 31 72 0.0 1.6 0.00 0.00 0.00 65 1012.9
20260906001504 31 92 1.6 4.8 0.00 0.00 0.00 65 1012.8
20260906001004 31 94 3.2 9.7 0.00 0.00 0.00 65 1012.8
20260906000504 31 120 6.4 12.9 0.00 0.00 0.00 65 1012.7
20260906000004 31 121 3.2 14.5 0.00 0.00 0.00 65 1012.6
20260905235504 31 130 3.2 12.9 0.00 0.00 0.00 65 1012.7
20260905235004 31 108 1.6 8.0 0.00 0.00 0.00 65 1012.6
20260905234504 31 102 4.8 12.9 0.00 0.00 0.00 65 1012.5
20260905234005 31 112 8.0 19.3 0.00 0.00 0.00 64 1012.4
20260905233504 31 123 9.7 16.1 0.00 0.00 0.00 64 1012.3
20260905233005 31 121 8.0 19.3 0.00 0.00 0.00 64 1012.4
20260905232504 31 113 8.0 19.3 0.00 0.00 0.00 64 1012.3
20260905232004 31 127 9.7 16.1 0.00 0.00 0.00 64 1012.4
20260905231504 31 132 1.6 16.1 0.00 0.00 0.00 64 1012.4
20260905231004 31 122 8.0 19.3 0.00 0.00 0.00 63 1012.4
20260905230504 31 97 4.8 19.3 0.00 0.00 0.00 63 1012.4
20260905230004 31 137 4.8 19.3 0.00 0.00 0.00 64 1012.4
20260905225505 31 144 9.7 20.9 0.00 0.00 0.00 62 1012.3
20260905225004 31 119 11.3 20.9 0.00 0.00 0.00 62 1012.3
20260905224504 32 120 8.0 19.3 0.00 0.00 0.00 61 1012.1
20260905224005 32 133 16.1 25.7 0.00 0.00 0.00 61 1012.0
20260905223504 32 134 11.3 22.5 0.00 0.00 0.00 60 1011.9
20260905223004 32 122 9.7 22.5 0.00 0.00 0.00 61 1011.9
20260905222504 32 134 19.3 29.0 0.00 0.00 0.00 61 1011.8
20260905222004 32 113 11.3 24.1 0.00 0.00 0.00 61 1011.9
20260905221504 32 114 12.9 22.5 0.00 0.00 0.00 61 1011.9
20260905221004 32 112 9.7 24.1 0.00 0.00 0.00 60 1011.8
20260905220505 32 114 9.7 19.3 0.00 0.00 0.00 60 1011.8
20260905220004 32 110 8.0 22.5 0.00 0.00 0.00 60 1011.8
20260905215505 32 130 12.9 22.5 0.00 0.00 0.00 60 1011.8
20260905215004 32 123 12.9 22.5 0.00 0.00 0.00 60 1011.7
20260905214505 32 124 9.7 24.1 0.00 0.00 0.00 60 1011.6
20260905214005 32 105 14.5 33.8 0.00 0.00 0.00 58 1011.7
20260905213504 32 120 6.4 19.3 0.00 0.00 0.00 60 1011.8
20260905213004 32 106 8.0 22.5 0.00 0.00 0.00 59 1011.9
20260905212504 32 110 8.0 22.5 0.00 0.00 0.00 59 1012.0
20260905212005 32 116 11.3 24.1 0.00 0.00 0.00 59 1012.1
20260905211504 31 115 6.4 19.3 0.00 0.00 0.00 58 1012.0
20260905211005 31 96 8.0 19.3 0.00 0.00 0.00 59 1011.9
20260905210504 31 111 9.7 22.5 0.00 0.00 0.00 58 1012.0
20260905210004 31 78 4.8 24.1 0.00 0.00 0.00 57 1012.0
20260905205504 31 99 8.0 32.2 0.00 0.00 0.00 57 1012.0
20260905205004 31 86 8.0 19.3 0.00 0.00 0.00 55 1012.0
20260905204504 31 98 8.0 19.3 0.00 0.00 0.00 54 1012.1
20260905204004 31 83 8.0 24.1 0.00 0.00 0.00 55 1012.2
20260905203505 31 89 9.7 24.1 0.00 0.00 0.00 54 1012.3
20260905203004 30 85 9.7 22.5 0.00 0.00 0.00 54 1012.4
20260905202504 30 96 11.3 27.4 0.00 0.00 0.00 54 1012.4
20260905202004 30 105 11.3 25.7 0.00 0.00 0.00 54 1012.4
20260905201504 30 106 9.7 29.0 0.00 0.00 0.00 54 1012.7
20260905201004 30 96 9.7 19.3 0.00 0.00 0.00 56 1012.8
20260905200504 30 88 8.0 24.1 0.00 0.00 0.00 56 1012.9
20260905200004 30 89 9.7 25.7 0.00 0.00 0.00 55 1012.8
20260905195504 29 83 8.0 20.9 0.00 0.00 0.00 54 1012.6
20260905195004 29 119 8.0 20.9 0.00 0.00 0.00 54 1012.7
20260905194504 29 110 8.0 20.9 0.00 0.00 0.00 56 1012.7
20260905194004 28 104 4.8 14.5 0.00 0.00 0.00 58 1012.8